TimeCDT,TemperatureF,Dew PointF,Humidity,Sea Level PressureIn,VisibilityMPH,Wind Direction,Wind SpeedMPH,Gust SpeedMPH,PrecipitationIn,Events,Conditions,WindDirDegrees,DateUTC
12:00 AM,33.8,32.0,93,30.22,1.5,Calm,Calm,-,N/A,,Clear,0,2012-09-28 05:00:00
12:01 AM,33.8,32.0,93,30.22,1.8,Calm,Calm,-,N/A,,Clear,0,2012-09-28 05:01:00
12:02 AM,33.8,32.0,93,30.22,2.0,Calm,Calm,-,N/A,,Clear,0,2012-09-28 05:02:00
12:03 AM,33.8,33.8,100,30.22,3.0,Calm,Calm,-,N/A,,Clear,0,2012-09-28 05:03:00
12:08 AM,33.8,32.0,93,30.22,2.5,Calm,Calm,-,N/A,,Clear,0,2012-09-28 05:08:00
12:09 AM,32.0,32.0,100,30.22,1.8,Calm,Calm,-,N/A,,Clear,0,2012-09-28 05:09:00
12:10 AM,32.0,30.2,93,30.22,1.5,Calm,Calm,-,N/A,,Clear,0,2012-09-28 05:10:00
12:11 AM,32.0,30.2,93,30.22,1.0,Calm,Calm,-,N/A,,Clear,0,2012-09-28 05:11:00
12:13 AM,30.2,30.2,100,30.22,0.8,Calm,Calm,-,N/A,,Clear,0,2012-09-28 05:13:00
12:20 AM,33.8,32.0,93,30.22,1.0,Calm,Calm,-,N/A,,Clear,0,2012-09-28 05:20:00
12:22 AM,33.8,33.8,100,30.22,1.5,Calm,Calm,-,N/A,,Clear,0,2012-09-28 05:22:00
12:23 AM,33.8,33.8,100,30.22,2.0,Calm,Calm,-,N/A,,Clear,0,2012-09-28 05:23:00
12:24 AM,33.8,33.8,100,30.22,3.0,Calm,Calm,-,N/A,,Clear,0,2012-09-28 05:24:00
12:55 AM,33.6,32.9,97,30.21,2.5,Calm,Calm,-,N/A,,Clear,0,2012-09-28 05:55:00
12:56 AM,33.8,32.0,93,30.21,2.0,Calm,Calm,-,N/A,,Clear,0,2012-09-28 05:56:00
12:57 AM,33.8,32.0,93,30.21,1.8,Calm,Calm,-,N/A,,Clear,0,2012-09-28 05:57:00
1:00 AM,32.0,32.0,100,30.21,1.5,Calm,Calm,-,N/A,,Clear,0,2012-09-28 06:00:00
1:01 AM,32.0,32.0,100,30.21,1.8,Calm,Calm,-,N/A,,Clear,0,2012-09-28 06:01:00
1:03 AM,32.0,32.0,100,30.21,2.0,Calm,Calm,-,N/A,,Clear,0,2012-09-28 06:03:00
1:04 AM,32.0,32.0,100,30.21,2.5,Calm,Calm,-,N/A,,Clear,0,2012-09-28 06:04:00
1:05 AM,32.0,32.0,100,30.21,3.0,Calm,Calm,-,N/A,,Clear,0,2012-09-28 06:05:00
1:18 AM,32.0,30.2,93,30.21,2.5,Calm,Calm,-,N/A,,Clear,0,2012-09-28 06:18:00
1:19 AM,32.0,30.2,93,30.21,1.8,Calm,Calm,-,N/A,,Clear,0,2012-09-28 06:19:00
1:20 AM,32.0,30.2,93,30.21,1.5,Calm,Calm,-,N/A,,Clear,0,2012-09-28 06:20:00
1:22 AM,32.0,30.2,93,30.21,1.2,Calm,Calm,-,N/A,,Clear,0,2012-09-28 06:22:00
1:26 AM,32.0,30.2,93,30.22,1.5,Calm,Calm,-,N/A,,Clear,0,2012-09-28 06:26:00
1:28 AM,32.0,30.2,93,30.22,1.8,Calm,Calm,-,N/A,,Clear,0,2012-09-28 06:28:00
1:29 AM,30.2,30.2,100,30.22,2.0,Calm,Calm,-,N/A,,Clear,0,2012-09-28 06:29:00
1:31 AM,30.2,30.2,100,30.22,1.8,Calm,Calm,-,N/A,,Clear,0,2012-09-28 06:31:00
1:32 AM,30.2,28.4,93,30.22,1.5,Calm,Calm,-,N/A,,Clear,0,2012-09-28 06:32:00
1:33 AM,30.2,28.4,93,30.22,1.2,Calm,Calm,-,N/A,,Clear,0,2012-09-28 06:33:00
1:35 AM,30.2,28.4,93,30.22,1.0,Calm,Calm,-,N/A,,Clear,0,2012-09-28 06:35:00
1:37 AM,30.2,28.4,93,30.22,0.8,Calm,Calm,-,N/A,,Clear,0,2012-09-28 06:37:00
1:44 AM,30.2,28.4,93,30.22,0.5,Calm,Calm,-,N/A,Fog,Light Freezing Fog,0,2012-09-28 06:44:00
1:55 AM,29.1,28.4,97,30.22,0.5,Calm,Calm,-,N/A,Fog,Light Freezing Fog,0,2012-09-28 06:55:00
2:03 AM,28.4,28.4,100,30.22,0.8,Calm,Calm,-,N/A,,Clear,0,2012-09-28 07:03:00
2:07 AM,28.4,28.4,100,30.22,1.0,Calm,Calm,-,N/A,,Clear,0,2012-09-28 07:07:00
2:10 AM,30.2,28.4,93,30.22,1.2,Calm,Calm,-,N/A,,Clear,0,2012-09-28 07:10:00
2:12 AM,30.2,28.4,93,30.22,1.5,Calm,Calm,-,N/A,,Clear,0,2012-09-28 07:12:00
2:13 AM,30.2,28.4,93,30.22,1.8,Calm,Calm,-,N/A,,Clear,0,2012-09-28 07:13:00
2:15 AM,30.2,28.4,93,30.22,1.5,Calm,Calm,-,N/A,,Clear,0,2012-09-28 07:15:00
2:17 AM,30.2,28.4,93,30.22,1.2,Calm,Calm,-,N/A,,Clear,0,2012-09-28 07:17:00
2:28 AM,28.4,28.4,100,30.22,1.0,Calm,Calm,-,N/A,,Clear,0,2012-09-28 07:28:00
2:32 AM,30.2,28.4,93,30.22,1.2,Calm,Calm,-,N/A,,Clear,0,2012-09-28 07:32:00
2:35 AM,30.2,28.4,93,30.22,1.5,Calm,Calm,-,N/A,,Clear,0,2012-09-28 07:35:00
2:36 AM,30.2,28.4,93,30.22,1.8,Calm,Calm,-,N/A,,Clear,0,2012-09-28 07:36:00
2:37 AM,30.2,28.4,93,30.22,2.0,Calm,Calm,-,N/A,,Clear,0,2012-09-28 07:37:00
2:38 AM,30.2,28.4,93,30.22,2.5,Calm,Calm,-,N/A,,Clear,0,2012-09-28 07:38:00
2:39 AM,30.2,28.4,93,30.22,4.0,Calm,Calm,-,N/A,,Clear,0,2012-09-28 07:39:00
2:55 AM,30.2,29.7,98,30.22,6.0,Calm,Calm,-,N/A,,Clear,0,2012-09-28 07:55:00
3:04 AM,32.0,30.2,93,30.22,2.5,Calm,Calm,-,N/A,,Clear,0,2012-09-28 08:04:00
3:07 AM,30.2,30.2,100,30.22,3.0,Calm,Calm,-,N/A,,Clear,0,2012-09-28 08:07:00
3:17 AM,30.2,30.2,100,30.22,2.5,Calm,Calm,-,N/A,,Clear,0,2012-09-28 08:17:00
3:18 AM,30.2,30.2,100,30.22,1.8,Calm,Calm,-,N/A,,Clear,0,2012-09-28 08:18:00
3:19 AM,30.2,28.4,93,30.22,1.5,Calm,Calm,-,N/A,,Clear,0,2012-09-28 08:19:00
3:20 AM,28.4,28.4,100,30.22,1.2,Calm,Calm,-,N/A,,Clear,0,2012-09-28 08:20:00
3:21 AM,28.4,28.4,100,30.22,1.0,Calm,Calm,-,N/A,,Clear,0,2012-09-28 08:21:00
3:23 AM,28.4,26.6,93,30.22,0.8,Calm,Calm,-,N/A,,Clear,0,2012-09-28 08:23:00
3:26 AM,26.6,24.8,93,30.22,0.5,Calm,Calm,-,N/A,Fog,Light Freezing Fog,0,2012-09-28 08:26:00
3:36 AM,28.4,26.6,93,30.22,0.8,Calm,Calm,-,N/A,,Clear,0,2012-09-28 08:36:00
3:47 AM,30.2,30.2,100,30.22,1.0,Calm,Calm,-,N/A,,Clear,0,2012-09-28 08:47:00
3:49 AM,30.2,30.2,100,30.22,1.2,Calm,Calm,-,N/A,,Clear,0,2012-09-28 08:49:00
3:51 AM,30.2,30.2,100,30.22,1.8,Calm,Calm,-,N/A,,Clear,0,2012-09-28 08:51:00
3:52 AM,30.2,30.2,100,30.22,2.5,Calm,Calm,-,N/A,,Clear,0,2012-09-28 08:52:00
3:53 AM,30.2,30.2,100,30.22,4.0,Calm,Calm,-,N/A,,Clear,0,2012-09-28 08:53:00
3:55 AM,30.6,30.2,99,30.22,8.0,Calm,Calm,-,N/A,,Clear,0,2012-09-28 08:55:00
4:08 AM,26.6,26.6,100,30.22,2.5,Calm,Calm,-,N/A,,Clear,0,2012-09-28 09:08:00
4:09 AM,26.6,24.8,93,30.22,2.0,Calm,Calm,-,N/A,,Clear,0,2012-09-28 09:09:00
4:10 AM,26.6,24.8,93,30.22,1.5,Calm,Calm,-,N/A,,Clear,0,2012-09-28 09:10:00
4:12 AM,26.6,24.8,93,30.22,1.2,Calm,Calm,-,N/A,,Clear,0,2012-09-28 09:12:00
4:13 AM,26.6,24.8,93,30.22,1.0,Calm,Calm,-,N/A,,Clear,0,2012-09-28 09:13:00
4:15 AM,26.6,26.6,100,30.22,0.8,Calm,Calm,-,N/A,,Clear,0,2012-09-28 09:15:00
4:22 AM,26.6,24.8,93,30.22,0.5,Calm,Calm,-,N/A,Fog,Light Freezing Fog,0,2012-09-28 09:22:00
4:39 AM,26.6,24.8,93,30.22,0.2,Calm,Calm,-,N/A,Fog,Light Freezing Fog,0,2012-09-28 09:39:00
4:40 AM,26.6,24.8,93,30.22,0.5,Calm,Calm,-,N/A,Fog,Light Freezing Fog,0,2012-09-28 09:40:00
4:55 AM,27.5,26.4,96,30.22,0.5,Calm,Calm,-,N/A,Fog,Light Freezing Fog,0,2012-09-28 09:55:00
5:00 AM,26.6,26.6,100,30.21,0.2,Calm,Calm,-,N/A,Fog,Light Freezing Fog,0,2012-09-28 10:00:00
5:35 AM,26.6,26.6,100,30.23,0.5,Calm,Calm,-,N/A,Fog,Light Freezing Fog,0,2012-09-28 10:35:00
5:44 AM,28.4,28.4,100,30.23,0.8,Calm,Calm,-,N/A,,Clear,0,2012-09-28 10:44:00
5:47 AM,28.4,28.4,100,30.23,1.0,Calm,Calm,-,N/A,,Clear,0,2012-09-28 10:47:00
5:49 AM,28.4,28.4,100,30.23,1.2,Calm,Calm,-,N/A,,Clear,0,2012-09-28 10:49:00
5:50 AM,28.4,28.4,100,30.22,1.8,Calm,Calm,-,N/A,,Clear,0,2012-09-28 10:50:00
5:51 AM,28.4,28.4,100,30.22,2.5,Calm,Calm,-,N/A,,Clear,0,2012-09-28 10:51:00
5:52 AM,28.4,28.4,100,30.22,4.0,Calm,Calm,-,N/A,,Clear,0,2012-09-28 10:52:00
5:55 AM,28.8,27.9,96,30.22,7.0,Calm,Calm,-,N/A,,Clear,0,2012-09-28 10:55:00
6:07 AM,28.4,28.4,100,30.23,2.0,Calm,Calm,-,N/A,,Clear,0,2012-09-28 11:07:00
6:09 AM,28.4,28.4,100,30.23,1.8,Calm,Calm,-,N/A,,Clear,0,2012-09-28 11:09:00
6:15 AM,28.4,28.4,100,30.23,2.0,Calm,Calm,-,N/A,,Clear,0,2012-09-28 11:15:00
6:16 AM,28.4,28.4,100,30.23,2.5,Calm,Calm,-,N/A,,Clear,0,2012-09-28 11:16:00
6:17 AM,28.4,28.4,100,30.23,3.0,Calm,Calm,-,N/A,,Clear,0,2012-09-28 11:17:00
6:55 AM,28.4,27.7,97,30.24,8.0,Calm,Calm,-,N/A,,Clear,0,2012-09-28 11:55:00
7:28 AM,28.4,28.4,100,30.22,10.0,Calm,Calm,-,N/A,Fog,Patches of Fog,0,2012-09-28 12:28:00
7:55 AM,30.2,30.2,100,30.26,10.0,Calm,Calm,-,N/A,,Partly Cloudy,0,2012-09-28 12:55:00
8:55 AM,41.0,39.2,93,30.26,10.0,Calm,Calm,-,N/A,,Partly Cloudy,0,2012-09-28 13:55:00
9:55 AM,51.8,44.6,76,30.26,10.0,WSW,3.5,-,N/A,,Partly Cloudy,250,2012-09-28 14:55:00
10:55 AM,62.6,42.8,48,30.25,10.0,Variable,4.6,-,N/A,,Partly Cloudy,0,2012-09-28 15:55:00
11:55 AM,66.2,39.2,37,30.23,10.0,NW,5.8,-,N/A,,Partly Cloudy,320,2012-09-28 16:55:00
12:55 PM,68.0,39.2,35,30.21,10.0,Variable,6.9,-,N/A,,Partly Cloudy,0,2012-09-28 17:55:00
1:55 PM,69.8,39.2,33,30.18,10.0,Calm,Calm,-,N/A,,Scattered Clouds,0,2012-09-28 18:55:00
2:55 PM,71.6,37.4,29,30.16,10.0,Variable,4.6,-,N/A,,Mostly Cloudy,0,2012-09-28 19:55:00
3:55 PM,71.6,37.4,29,30.14,10.0,West,5.8,-,N/A,,Mostly Cloudy,260,2012-09-28 20:55:00
4:55 PM,69.8,37.6,31,30.13,10.0,WNW,5.8,-,N/A,,Clear,290,2012-09-28 21:55:00
5:55 PM,68.9,40.1,35,30.13,10.0,WNW,3.5,-,N/A,,Clear,290,2012-09-28 22:55:00
6:55 PM,57.9,43.9,60,30.14,10.0,Calm,Calm,-,N/A,,Mostly Cloudy,0,2012-09-28 23:55:00
7:55 PM,50.9,44.1,77,30.14,10.0,Calm,Calm,-,N/A,,Scattered Clouds,0,2012-09-29 00:55:00
8:55 PM,48.0,42.3,80,30.14,10.0,Calm,Calm,-,N/A,,Scattered Clouds,0,2012-09-29 01:55:00
9:55 PM,45.9,42.3,87,30.13,10.0,Calm,Calm,-,N/A,,Partly Cloudy,0,2012-09-29 02:55:00
10:55 PM,46.6,41.7,83,30.13,10.0,Calm,Calm,-,N/A,,Scattered Clouds,0,2012-09-29 03:55:00
11:55 PM,40.5,38.7,93,30.12,10.0,Calm,Calm,-,N/A,,Clear,0,2012-09-29 04:55:00